Voltar ao catálogo

STARLINK-31810

AtivoComunicaçõesVLEO
NORAD 59799·PAYLOAD·🇺🇸 United States

Lançado May 18, 2024 de Cape Canaveral Space Force Station

Loading…

Próximas Passagens (próximas 24 horas)

TLE

AtualizadoSource: CelesTrak SupGP

Época: Sep 15, 2026, 02:03 UTC

1 59799C 24093T   26258.08590278 -.00036784  00000+0 -13324-2 0  2581
2 59799  42.9996 219.4750 0001177 267.4444 280.9383 15.27595347    17

Acompanhe STARLINK-31810 em tempo real com AllMySat

Download on the App Store